When you browse on this site, cookies collect data to enhance your experience and personalize the content and advertising you see.
Visit our Privacy Policy to learn more. By continuing to use the site, you agree to this use of cookies and data.
  • In United Kingdom
  • List of Countries
  • For 7 days
  • Water Temperature
  • Weather Map
  • Weather Widgets
  • user-avatar
    Login

    Hourly Weather Oran

    Today, 4 June, Thursday

    Time Temperature Precipitation Wind Pressure Humidity
    00:00 +26°C° 0 mm 6 mps 746 mmHg 41%
    01:00 +24°C° 0 mm 7 mps 745 mmHg 42%
    02:00 +24°C° 0 mm 7 mps 745 mmHg 43%
    03:00 +23°C° 0 mm 8 mps 745 mmHg 44%
    04:00 +23°C° 0 mm 8 mps 745 mmHg 49%
    05:00 +22°C° 0 mm 9 mps 746 mmHg 55%
    06:00 +22°C° 0 mm 9 mps 746 mmHg 61%
    07:00 +23°C° 0 mm 10 mps 746 mmHg 56%
    08:00 +24°C° 0 mm 11 mps 746 mmHg 50%
    09:00 +27°C° 0 mm 12 mps 746 mmHg 45%
    10:00 +27°C° 0 mm 12 mps 746 mmHg 44%
    11:00 +27°C° 0 mm 12 mps 747 mmHg 44%
    12:00 +28°C° 0 mm 12 mps 747 mmHg 43%
    13:00 +28°C° 0 mm 12 mps 746 mmHg 42%
    14:00 +28°C° 0 mm 12 mps 746 mmHg 42%
    15:00 +28°C° 0 mm 12 mps 746 mmHg 42%
    16:00 +28°C° 0 mm 11 mps 746 mmHg 47%
    17:00 +27°C° 0 mm 11 mps 746 mmHg 51%
    18:00 +26°C° 0 mm 10 mps 747 mmHg 56%
    19:00 +24°C° 0 mm 9 mps 747 mmHg 60%
    20:00 +24°C° 0 mm 9 mps 748 mmHg 65%
    21:00 +23°C° 0 mm 8 mps 749 mmHg 70%
    22:00 +23°C° 0 mm 8 mps 749 mmHg 70%
    23:00 +22°C° 0 mm 7 mps 749 mmHg 71%

    Tomorrow, 5 June, Friday

    Time Temperature Precipitation Wind Pressure Humidity
    00:00 +22°C° 0 mm 7 mps 749 mmHg 71%
    01:00 +22°C° 0 mm 7 mps 749 mmHg 73%
    02:00 +21°C° 0 mm 7 mps 748 mmHg 74%
    03:00 +21°C° 0 mm 6 mps 748 mmHg 75%
    04:00 +21°C° 0 mm 7 mps 749 mmHg 75%
    05:00 +21°C° 0 mm 7 mps 749 mmHg 76%
    06:00 +21°C° 0 mm 7 mps 749 mmHg 76%
    07:00 +22°C° 0 mm 8 mps 749 mmHg 70%
    08:00 +23°C° 0 mm 8 mps 750 mmHg 64%
    09:00 +24°C° 0 mm 8 mps 750 mmHg 58%
    10:00 +26°C° 0 mm 8 mps 750 mmHg 54%
    11:00 +27°C° 0 mm 8 mps 750 mmHg 50%
    12:00 +28°C° 0 mm 8 mps 750 mmHg 47%
    13:00 +28°C° 0 mm 8 mps 750 mmHg 45%
    14:00 +28°C° 0 mm 8 mps 749 mmHg 43%
    15:00 +28°C° 0 mm 7 mps 749 mmHg 42%
    16:00 +28°C° 0 mm 6 mps 749 mmHg 41%
    17:00 +27°C° 0 mm 6 mps 749 mmHg 40%
    18:00 +27°C° 0 mm 5 mps 749 mmHg 40%
    19:00 +26°C° 0 mm 4 mps 749 mmHg 43%
    20:00 +25°C° 0 mm 4 mps 750 mmHg 46%
    21:00 +23°C° 0 mm 4 mps 750 mmHg 49%
    22:00 +23°C° 0 mm 4 mps 750 mmHg 49%
    23:00 +23°C° 0 mm 4 mps 750 mmHg 48%

    Day after tomorrow, 6 June, Saturday

    Time Temperature Precipitation Wind Pressure Humidity
    00:00 +23°C° 0 mm 4 mps 750 mmHg 47%
    01:00 +23°C° 0 mm 4 mps 750 mmHg 48%
    02:00 +23°C° 0 mm 4 mps 749 mmHg 49%
    03:00 +22°C° 0 mm 4 mps 749 mmHg 51%
    04:00 +24°C° 0 mm 3 mps 749 mmHg 50%
    05:00 +24°C° 0 mm 3 mps 749 mmHg 50%
    06:00 +25°C° 0 mm 2 mps 749 mmHg 49%
    07:00 +26°C° 0 mm 2 mps 749 mmHg 45%
    08:00 +28°C° 0 mm 2 mps 749 mmHg 40%
    09:00 +29°C° 0 mm 2 mps 749 mmHg 36%
    10:00 +30°C° 0 mm 3 mps 749 mmHg 35%
    11:00 +31°C° 0 mm 3 mps 749 mmHg 35%
    12:00 +33°C° 0 mm 4 mps 749 mmHg 34%
    13:00 +33°C° 0 mm 4 mps 749 mmHg 34%
    14:00 +33°C° 0 mm 4 mps 748 mmHg 33%
    15:00 +33°C° 0 mm 4 mps 748 mmHg 33%
    16:00 +33°C° 0 mm 4 mps 748 mmHg 34%
    17:00 +32°C° 0 mm 4 mps 747 mmHg 35%
    18:00 +30°C° 0 mm 4 mps 747 mmHg 37%
    19:00 +30°C° 0 mm 4 mps 747 mmHg 38%
    20:00 +29°C° 0 mm 4 mps 747 mmHg 39%
    21:00 +28°C° 0 mm 4 mps 748 mmHg 41%
    22:00 +28°C° 0.1 mm 5 mps 748 mmHg 41%
    23:00 +28°C° 0.1 mm 6 mps 748 mmHg 41%

    7 June, Sunday

    Time Temperature Precipitation Wind Pressure Humidity
    00:00 +27°C° 0.1 mm 6 mps 748 mmHg 42%
    01:00 +26°C° 0.2 mm 6 mps 748 mmHg 46%
    02:00 +24°C° 0.2 mm 6 mps 747 mmHg 50%
    03:00 +24°C° 0.2 mm 6 mps 747 mmHg 55%
    04:00 +23°C° 0.3 mm 6 mps 748 mmHg 57%
    05:00 +23°C° 0.3 mm 5 mps 748 mmHg 58%
    06:00 +23°C° 0.3 mm 5 mps 748 mmHg 60%
    07:00 +25°C° 0 mm 5 mps 748 mmHg 57%
    08:00 +26°C° 0 mm 6 mps 749 mmHg 54%
    09:00 +26°C° 0 mm 7 mps 749 mmHg 51%
    10:00 +27°C° 0 mm 7 mps 749 mmHg 50%
    11:00 +27°C° 0 mm 7 mps 749 mmHg 48%
    12:00 +28°C° 0 mm 7 mps 749 mmHg 47%
    13:00 +28°C° 0 mm 7 mps 749 mmHg 45%
    14:00 +29°C° 0 mm 7 mps 748 mmHg 43%
    15:00 +29°C° 0 mm 8 mps 748 mmHg 41%
    16:00 +28°C° 0 mm 7 mps 748 mmHg 42%
    17:00 +28°C° 0 mm 7 mps 748 mmHg 42%
    18:00 +27°C° 0 mm 7 mps 748 mmHg 43%
    19:00 +26°C° 0 mm 6 mps 748 mmHg 44%
    20:00 +26°C° 0 mm 6 mps 749 mmHg 46%
    21:00 +25°C° 0 mm 5 mps 749 mmHg 47%
    22:00 +24°C° 0 mm 6 mps 749 mmHg 49%
    23:00 +23°C° 0 mm 7 mps 749 mmHg 51%

    8 June, Monday

    Time Temperature Precipitation Wind Pressure Humidity
    00:00 +23°C° 0 mm 7 mps 749 mmHg 53%
    01:00 +23°C° 0 mm 7 mps 749 mmHg 55%
    02:00 +23°C° 0 mm 7 mps 749 mmHg 57%
    03:00 +22°C° 0 mm 7 mps 748 mmHg 58%
    04:00 +22°C° 0 mm 7 mps 749 mmHg 60%
    05:00 +22°C° 0 mm 7 mps 749 mmHg 62%
    06:00 +22°C° 0 mm 7 mps 749 mmHg 64%
    07:00 +23°C° 0 mm 7 mps 749 mmHg 61%
    08:00 +24°C° 0 mm 7 mps 749 mmHg 57%
    09:00 +26°C° 0 mm 8 mps 750 mmHg 53%
    10:00 +27°C° 0 mm 8 mps 750 mmHg 51%
    11:00 +27°C° 0 mm 7 mps 750 mmHg 49%
    12:00 +28°C° 0 mm 7 mps 750 mmHg 46%
    13:00 +28°C° 0 mm 7 mps 749 mmHg 46%
    14:00 +28°C° 0 mm 6 mps 749 mmHg 46%
    15:00 +28°C° 0 mm 6 mps 749 mmHg 46%
    16:00 +27°C° 0 mm 5 mps 749 mmHg 46%
    17:00 +27°C° 0 mm 5 mps 749 mmHg 46%
    18:00 +26°C° 0 mm 4 mps 749 mmHg 47%
    19:00 +26°C° 0 mm 3 mps 750 mmHg 49%
    20:00 +25°C° 0 mm 3 mps 750 mmHg 51%
    21:00 +24°C° 0 mm 2 mps 750 mmHg 53%
    22:00 +24°C° 0 mm 2 mps 750 mmHg 54%
    23:00 +24°C° 0 mm 2 mps 750 mmHg 55%

    9 June, Tuesday

    Time Temperature Precipitation Wind Pressure Humidity
    00:00 +23°C° 0 mm 2 mps 750 mmHg 55%
    01:00 +23°C° 0 mm 2 mps 750 mmHg 59%
    02:00 +21°C° 0 mm 2 mps 750 mmHg 62%
    03:00 +22°C° 0 mm 1 mps 749 mmHg 65%
    04:00 +21°C° 0 mm 2 mps 750 mmHg 64%
    05:00 +21°C° 0 mm 2 mps 750 mmHg 64%
    06:00 +22°C° 0 mm 3 mps 750 mmHg 63%
    07:00 +24°C° 0.1 mm 2 mps 750 mmHg 58%
    08:00 +25°C° 0.1 mm 2 mps 751 mmHg 53%
    09:00 +26°C° 0.1 mm 2 mps 751 mmHg 48%
    10:00 +27°C° 0.1 mm 2 mps 751 mmHg 46%
    11:00 +28°C° 0.1 mm 2 mps 751 mmHg 44%
    12:00 +29°C° 0.1 mm 2 mps 751 mmHg 41%
    13:00 +29°C° 0 mm 3 mps 750 mmHg 41%
    14:00 +30°C° 0 mm 4 mps 750 mmHg 40%
    15:00 +30°C° 0 mm 5 mps 750 mmHg 39%
    16:00 +29°C° 0.1 mm 5 mps 750 mmHg 41%
    17:00 +28°C° 0.1 mm 5 mps 750 mmHg 44%
    18:00 +28°C° 0.1 mm 5 mps 750 mmHg 46%
    19:00 +27°C° 0.1 mm 4 mps 750 mmHg 49%
    20:00 +26°C° 0.1 mm 4 mps 751 mmHg 52%
    21:00 +25°C° 0.1 mm 3 mps 751 mmHg 55%
    22:00 +25°C° 0.2 mm 3 mps 751 mmHg 57%
    23:00 +24°C° 0.2 mm 2 mps 751 mmHg 59%
    Show more